Location: Trout Lake
(45.9980°N, 121.5270°W)
Time: 20:30:27
(UTC-08:00)

Cosmos 407 Rocket - Pass Details

Date: 06 December 2023
Orbit: 742 x 784 km, 74.0° (Epoch: 22 February)

Event Time Altitude Azimuth Distance (km) Brightness Sun altitude
Rises 16:48:01 0° 344° (NNW) 3,212 6.6 -4.9°
Reaches altitude 10° 16:50:37 10° 354° (N) 2,278 5.7 -5.3°
Maximum altitude 16:55:17 34° 59° (ENE) 1,228 4.1 -6.0°
Drops below altitude 10° 16:59:53 10° 124° (ESE) 2,251 5.6 -6.7°
Sets 17:02:26 0° 133° (SE) 3,169 6.5 -7.1°
